SCP
0 0 0 0 0 0 0 0 0 0 0 0 0 0 0 0 0 0 0 0 0 0 0 0 0 0 1 1 1 1 1 1 1 0 0 0 0 0 0 0 0 0 0
0 0 0 0 0 0 0 0 0 0 0 0 0 0 0 0 0 0 0 0 0 0 0 0 0 0 0 1 1 1 1 1 1 1 0 0 0 0 0 0 0 0 0
0 0 0 0 0 0 0 0 0 0 0 0 0 0 0 0 0 0 0 0 0 0 0 0 0 0 0 0 1 1 1 1 1 1 0 0 0 0 0 0 0 0 0
0 0 0 0 0 0 0 0 0 0 0 0 0 0 0 0 0 0 0 0 0 0 0 0 0 0 0 0 0 0 1 1 1 1 1 0 0 0 0 0 0 0 0
0 0 0 0 0 0 0 0 0 0 0 0 0 0 0 0 0 0 0 0 0 0 0 0 0 0 0 0 0 0 0 1 1 1 1 0 0 0 0 0 0 0 0
0 0 0 0 0 0 0 0 0 0 0 0 0 0 0 0 0 0 0 0 0 0 0 0 0 0 0 0 0 0 0 0 0 1 0 0 0 0 0 0 0 0 0
0 0 0 0 0 0 0 0 0 0 0 0 0 0 0 0 0 0 0 0 0 0 0 0 0 0 0 0 0 0 0 0 0 0 0 0 0 0 0 0 0 0 0
0 0 0 0 0 0 0 0 0 0 0 0 0 0 0 0 0 0 0 0 0 0 0 0 0 0 0 0 0 0 0 0 0 0 0 0 0 0 0 0 0 0 0
0 0 0 0 0 0 0 0 0 0 0 0 0 0 0 0 0 0 0 0 0 0 0 0 0 0 0 0 0 0 0 0 0 0 0 0 0 0 0 0 0 0 0
0 0 0 0 0 0 0 0 0 0 0 0 0 0 0 0 0 0 0 0 0 0 0 0 0 0 0 0 0 0 0 0 0 0 0 0 0 0 0 0 0 0 0
0 0 0 0 0 0 0 0 0 0 0 0 0 0 0 0 0 0 0 0 0 0 0 0 0 0 0 0 0 0 0 0 0 0 0 0 0 0 0 0 0 0 0
0 0 0 0 0 0 0 0 0 0 0 0 0 0 0 0 0 0 0 0 0 0 0 0 0 0 0 0 0 0 0 0 0 0 0 0 0 0 0 0 0 0 0
0 0 0 0 0 0 0 0 0 0 0 0 0 0 0 0 0 0 0 0 0 0 0 0 0 0 0 0 0 0 0 0 0 0 0 0 0 0 0 0 0 0 0
0 0 0 0 0 0 0 0 0 0 0 0 0 0 0 0 0 0 0 0 0 0 0 0 0 0 0 0 0 0 0 0 0 0 0 0 0 0 0 0 0 0 0
0 0 0 0 0 0 0 0 0 0 0 0 0 0 0 0 0 0 0 0 0 0 0 0 0 0 0 0 0 0 0 0 0 0 0 0 0 0 0 0 0 0 0
0 0 0 0 0 0 0 0 0 0 0 0 0 0 0 0 0 0 0 0 0 0 0 0 0 0 0 0 0 0 0 0 0 0 0 0 0 0 0 0 0 0 0
0 0 0 0 0 0 0 0 0 0 0 0 0 0 0 0 0 0 0 0 0 0 0 0 0 0 0 0 0 0 0 0 0 0 0 0 0 0 0 0 0 0 0
0 0 0 0 0 0 0 0 0 0 0 0 0 0 0 0 0 0 0 0 0 0 0 0 0 0 0 0 0 0 0 0 0 0 0 0 0 0 0 0 0 0 0
0 0 0 0 0 0 0 0 0 0 0 0 0 0 0 0 0 0 0 0 0 0 0 0 0 0 0 0 0 0 0 0 0 0 0 0 0 0 0 0 0 0 0
0 0 0 0 0 0 0 0 0 0 0 0 0 0 0 0 0 0 0 0 0 0 0 0 0 0 0 0 0 0 0 0 0 0 0 0 0 0 0 0 0 0 0
0 0 0 0 0 0 0 0 0 0 0 0 0 0 0 0 0 0 0 0 0 0 0 0 0 0 0 0 0 0 0 0 0 0 0 0 0 0 0 0 0 0 0
0 0 0 0 0 0 0 0 0 0 0 0 0 0 0 0 0 0 0 0 0 0 0 0 0 0 0 0 0 0 0 0 0 0 0 0 0 0 0 0 0 0 0
0 0 0 0 0 0 0 0 0 0 0 0 0 0 0 0 0 0 0 0 0 0 0 0 0 0 0 0 0 0 0 0 0 0 0 0 0 0 0 0 0 0 0
0 0 0 0 0 0 0 0 0 0 0 0 0 0 0 0 0 0 0 0 0 0 0 0 0 0 0 0 0 0 0 0 0 0 0 0 0 0 0 0 0 0 0
0 0 0 0 0 0 0 0 0 0 0 0 0 0 0 0 0 0 0 0 0 0 0 0 0 0 0 0 0 0 0 0 0 0 0 0 0 0 0 0 0 0 0
0 0 0 0 0 0 0 0 0 0 0 0 0 0 0 0 0 0 0 0 0 0 0 0 0 0 0 0 0 0 0 0 0 0 0 0 0 0 0 0 0 0 0
Wind_Speed
5 5 5 5 6 6 6 7 7 8 8 8 8 9 8 8 7 6 7 7 7 7 6 7 8 9 8 8 8 8 9 8 8 5 5 5 7 8 8 8 8 8 10
5 5 5 5 5 6 6 7 7 8 8 8 8 8 8 8 7 7 7 7 7 7 6 7 7 6 8 7 7 9 8 9 8 8 6 6 7 8 8 9 8 8 7
4 5 5 5 6 6 6 7 7 7 8 8 8 8 8 8 8 8 7 7 7 7 6 6 7 6 6 5 7 8 7 7 7 7 6 5 5 6 7 8 8 6 7
4 5 5 5 5 6 6 7 8 7 7 8 8 8 8 8 8 9 8 8 7 6 6 6 7 6 6 6 6 7 7 7 7 7 6 5 5 6 7 7 7 6 6
4 5 4 5 5 5 6 6 7 7 7 7 8 8 8 8 8 11 10 8 8 7 6 5 5 5 5 5 5 5 6 6 6 6 6 6 6 6 7 6 6 6 6
4 4 3 4 4 5 6 6 7 7 7 8 8 8 8 7 11 13 12 9 8 7 6 5 3 4 3 4 5 5 6 7 7 7 6 7 8 8 7 7 7 7 5
4 3 3 4 4 5 5 6 6 7 7 7 8 8 8 8 11 12 12 10 8 6 6 5 3 2 3 3 3 5 6 7 8 7 8 9 9 9 10 10 9 8 5
4 3 3 3 4 4 5 6 6 6 6 7 7 8 8 7 10 12 13 9 6 6 5 5 4 3 3 4 2 2 3 4 5 7 7 8 8 8 9 9 8 7 6
4 4 4 4 4 5 5 6 6 6 7 7 6 7 8 7 8 11 13 7 5 6 5 5 5 4 4 5 3 2 2 1 1 2 3 4 5 8 8 7 9 9 6
5 5 4 5 5 5 5 6 6 6 6 7 6 6 7 7 7 10 12 6 6 5 5 4 4 5 6 6 4 2 2 2 2 3 4 5 6 8 11 9 9 9 7
5 5 6 6 6 6 6 5 6 6 6 7 7 6 5 5 5 7 10 6 6 5 4 4 3 5 5 5 5 3 2 3 2 2 3 4 4 5 6 6 6 7 8
6 7 8 8 7 6 6 6 6 6 6 6 6 6 4 3 3 5 8 8 8 6 4 4 4 5 5 4 3 2 2 3 2 1 2 3 3 4 4 5 5 5 4
7 8 9 9 8 8 8 8 7 6 6 6 5 5 4 4 2 4 5 6 7 5 4 4 5 5 4 1 2 1 3 2 1 1 1 2 2 4 5 6 7 8 9
9 9 9 9 9 9 7 7 7 6 6 5 5 5 5 4 3 3 4 3 4 4 3 2 3 2 1 1 0 0 1 1 0 1 2 3 3 4 5 5 6 7 7
10 10 9 9 9 8 8 7 8 8 6 6 6 5 5 5 3 4 6 6 6 6 6 4 2 1 1 0 0 1 1 1 1 2 2 3 4 4 5 5 5 5 5
9 9 8 7 7 8 8 8 10 11 8 11 11 9 6 6 5 6 7 8 9 9 7 4 2 2 1 1 1 1 1 1 1 2 3 3 4 5 5 4 5 5 7
10 9 8 8 7 8 8 8 8 9 13 14 14 14 14 10 9 9 8 8 9 8 7 5 3 3 2 2 1 1 1 2 2 3 3 4 4 5 5 5 5 5 6
10 9 9 8 8 8 8 8 8 8 7 7 12 16 16 15 13 11 8 7 7 7 6 5 5 4 4 3 3 3 3 3 3 3 4 4 4 5 5 5 5 7 7
10 8 8 8 8 8 8 8 8 9 9 8 7 8 13 13 12 11 9 8 8 7 6 6 6 5 5 5 4 4 4 4 4 4 4 5 5 5 5 5 5 7 6
9 10 10 9 8 8 8 8 8 8 9 9 8 8 7 8 8 9 10 10 9 8 7 7 7 7 6 6 5 5 5 5 6 6 5 6 6 6 7 7 7 7 6
10 10 12 9 8 8 8 8 8 8 9 9 9 8 8 9 9 10 9 9 10 9 9 8 7 7 7 7 6 7 8 7 7 7 6 6 6 6 6 6 7 7 6
10 10 10 10 9 9 9 9 9 9 9 10 9 8 9 10 10 10 10 10 10 10 9 8 8 8 8 8 8 9 9 9 8 8 8 8 7 7 7 7 7 7 7
11 12 11 11 10 11 10 9 9 9 10 10 10 9 7 8 10 11 11 11 10 10 10 9 10 9 9 9 9 9 10 10 9 10 9 9 9 9 9 9 10 10 9
11 12 12 11 11 11 11 11 11 11 11 10 10 10 9 9 10 11 11 11 10 10 10 10 11 14 16 12 10 10 10 10 10 10 13 11 11 10 9 9 10 12 10
10 11 11 11 11 11 11 12 12 12 12 11 11 11 11 11 11 10 10 10 12 12 13 13 11 14 18 19 16 13 12 11 10 9 11 11 12 12 11 12 10 11 11
9 10 10 9 10 10 11 11 12 13 12 12 12 12 12 12 12 12 11 10 10 11 12 12 15 17 18 17 20 19 15 15 15 12 11 11 12 12 12 11 13 12 12
Wind_Direction
303 315 320 333 333 330 335 340 335 336 338 343 339 335 335 332 328 321 311 306 292 278 267 264 259 248 237 227 224 224 222 221 228 216 187 187 189 200 193 200 200 193 190
294 301 312 326 325 329 338 337 334 338 339 340 341 337 338 335 333 326 316 312 304 296 283 275 272 263 246 233 225 224 222 220 220 216 195 188 195 194 190 191 192 194 190
282 293 306 319 326 333 335 337 332 336 334 337 340 340 337 335 331 325 321 317 310 300 292 283 277 265 257 242 233 228 220 218 218 217 200 186 190 186 183 186 185 180 186
275 284 302 316 324 328 337 334 336 336 334 338 337 337 338 335 335 333 329 320 314 307 297 284 277 267 258 251 241 233 223 215 210 209 201 188 186 182 182 182 178 176 176
280 286 303 313 319 325 329 330 330 331 333 337 333 335 341 339 348 340 331 321 317 315 304 290 280 283 285 270 257 242 229 219 208 204 202 191 187 182 188 181 178 165 167
281 286 298 300 317 322 330 330 330 331 335 336 332 336 336 343 346 338 330 324 324 321 318 308 288 252 253 248 253 254 249 231 215 207 205 202 198 190 181 178 172 169 170
286 288 291 296 310 320 327 325 327 327 333 333 333 332 330 344 346 340 338 323 326 332 330 328 323 333 289 249 219 227 236 237 235 225 215 213 203 192 184 184 182 174 163
280 283 284 285 294 304 311 317 321 325 327 326 329 328 325 339 348 339 332 318 331 335 337 335 330 333 354 330 292 253 245 224 226 229 229 224 210 195 189 184 170 147 123
277 274 270 271 282 295 306 315 323 322 322 324 327 323 324 334 356 342 331 325 330 335 341 349 344 340 5 327 291 279 271 245 212 245 253 232 199 180 171 164 163 157 147
265 260 258 261 270 280 293 305 313 312 312 312 315 319 323 325 354 342 333 324 330 333 332 342 16 355 343 318 288 272 263 252 220 192 195 188 183 169 171 179 171 163 148
254 252 249 250 257 267 279 285 292 301 306 309 313 310 312 323 330 340 338 327 330 326 327 336 357 360 338 324 305 303 318 301 258 211 177 173 168 167 172 178 173 167 159
245 245 247 247 250 253 257 269 279 288 293 300 306 314 313 312 321 338 332 329 324 316 320 329 354 358 340 327 314 356 315 283 244 195 166 156 151 148 141 140 135 128 127
248 246 247 248 245 248 254 259 266 269 279 296 305 310 316 320 298 254 287 304 311 306 319 340 335 331 312 288 54 351 285 255 210 180 146 129 115 118 115 107 100 98 96
259 259 255 252 249 242 241 252 259 266 271 280 290 299 308 305 303 319 318 306 287 278 281 251 237 284 306 1 332 252 321 6 7 124 116 111 113 118 120 120 121 119 108
268 265 264 258 256 257 249 243 251 254 259 267 281 284 290 294 353 348 315 320 328 332 319 288 272 246 225 150 77 49 31 92 108 119 129 133 130 125 124 129 134 131 127
274 271 266 261 255 254 257 249 228 237 236 229 241 259 265 256 269 272 283 292 300 304 292 269 258 258 258 234 178 144 142 121 127 133 134 138 140 137 132 136 147 146 141
288 282 277 268 259 252 252 256 259 233 226 235 235 234 241 252 247 252 265 280 282 281 268 262 252 244 239 229 211 194 185 162 150 143 141 141 141 142 143 145 149 147 144
310 298 289 280 270 262 256 252 253 261 253 240 225 225 229 235 238 241 247 265 257 238 251 255 248 241 235 225 214 202 188 173 169 160 153 154 153 149 150 154 157 156 151
330 323 313 298 284 274 266 258 252 251 253 256 251 216 214 224 229 231 224 239 253 253 245 245 244 239 234 229 221 210 199 191 184 179 170 169 167 163 161 163 157 152 158
338 333 323 309 297 286 275 267 259 254 251 251 250 249 213 202 221 217 214 227 238 243 244 241 238 237 234 228 219 215 209 200 193 191 183 181 176 173 169 169 166 168 175
342 342 336 324 320 312 301 289 279 270 263 259 256 249 228 228 238 239 230 226 230 234 234 234 233 228 229 227 221 217 216 208 201 198 191 187 183 180 177 175 176 177 173
347 348 346 345 339 334 324 311 301 292 284 277 272 256 207 230 246 245 240 236 233 233 232 228 228 225 221 221 221 220 217 213 206 202 198 192 188 186 184 183 181 179 177
354 353 352 351 348 344 336 333 325 315 306 297 290 281 254 240 245 247 246 243 237 232 228 225 225 224 221 221 221 223 222 217 210 206 202 197 194 193 192 190 190 188 188
357 356 355 354 353 351 348 345 341 335 327 319 310 300 289 276 265 259 256 252 243 235 229 224 225 225 221 218 219 220 224 222 214 211 208 204 200 199 198 197 197 197 196
356 356 355 355 353 351 348 347 346 345 339 333 327 321 313 304 292 281 271 262 255 245 237 229 226 227 227 221 217 218 212 208 215 214 206 208 207 204 203 202 201 200 200
348 349 349 350 350 349 347 345 344 343 340 340 337 333 327 320 312 304 294 282 270 259 250 240 233 229 225 224 222 217 203 194 200 212 215 210 210 208 206 207 205 204 203